NOAA NWS Hourly Roundups by Site

Regional Weather Roundup for Omaha, NE

To Select Another Site Choose from List

Select Site:  

000
ASUS43 KOAX 131310
RWRNE

WEATHER ROUNDUP FOR NEBRASKA
NATIONAL WEATHER SERVICE OMAHA NE
700 AM CST THU DEC 13 2018

NOTES: SATELLITE DATA IS BEING USED TO AUGMENT CLOUD COVER ABOVE
       12000 FEET.
       "FAIR" INDICATES FEW OR NO CLOUDS BELOW 12,000 FEET WITH NO
       SIGNIFICANT WEATHER AND/OR OBSTRUCTIONS TO VISIBILITY.


NEZ001>004-019>022-054>056-131400-
NEBRASKA PANHANDLE

CITY           SKY/WX    TMP DP  RH WIND       PRES   REMARKS
SCOTTSBLUFF    CLEAR     21  17  84 NW7       30.19R WCI  12
ALLIANCE       CLEAR     28  22  78 NW17G25   30.13R WCI  16
CHADRON        CLEAR     27  22  81 W16       30.17R WCI  15
GORDON         FAIR      25  21  85 W13       30.12R WCI  14
KIMBALL        CLEAR     22  14  69 NW15      30.16R WCI   9
SIDNEY         CLEAR     26  19  74 NW17      30.15R WCI  13
$$

NEZ057>060-069>072-079>082-131400-
SOUTHWEST NEBRASKA

CITY           SKY/WX    TMP DP  RH WIND       PRES   REMARKS
NORTH PLATTE   MOCLDY    35  28  75 N18G29    30.06R WCI  24
IMPERIAL       PTCLDY    31  22  69 NW20G29   30.10R WCI  19
LEXINGTON      CLOUDY    37  31  79 N22G28    30.01R WCI  27
MCCOOK         MOCLDY    34  28  79 NW22      30.05R WCI  22
OGALLALA       CLEAR     31  26  81 NW9G17    30.11R WCI  23
$$

NEZ005>010-023>029-035>040-094-131400-
NORTH CENTRAL NEBRASKA

CITY           SKY/WX    TMP DP  RH WIND       PRES   REMARKS
VALENTINE      MOCLDY    35  29  78 NW16G25   30.05R WCI  25
AINSWORTH      CLOUDY    35  29  80 NW22G30   30.03R WCI  23
BROKEN BOW     CLOUDY    36  31  82 N32G49    30.00R WCI  23
O`NEILL        CLOUDY    36  31  84 NW22      29.99R WCI  24
ORD            CLOUDY    37  31  78 N25G39    29.99R WCI  25
THEDFORD       MOCLDY    35  30  84 NW21G28   30.05R WCI  23
$$

NEZ041-046>049-061>064-073>077-083>087-131400-
SOUTH CENTRAL NEBRASKA

CITY           SKY/WX    TMP DP  RH WIND       PRES   REMARKS
GRAND ISLAND   CLOUDY    37  31  78 N24G36    29.95R WCI  26
AURORA         CLOUDY    37  33  85 N22G29    29.94R WCI  26
HASTINGS       CLOUDY    38  32  79 N26G37    29.95R WCI  26
HEBRON         CLOUDY    36  33  87 N7        29.93R WCI  31
HOLDREGE       CLOUDY    37  32  84 N22G32    29.98R WCI  25
KEARNEY        CLOUDY    36  31  82 N22       29.97R WCI  25
YORK           CLOUDY    37  32  81 N15       29.93R WCI  28
$$

NEZ011>018-030>034-042>045-131400-
NORTHEAST NEBRASKA

CITY           SKY/WX    TMP DP  RH WIND       PRES   REMARKS
NORFOLK        CLOUDY    36  33  89 NW16      29.92R WCI  26
ALBION         CLOUDY    37  32  82 NW21G30   29.94R WCI  26
BLAIR          CLOUDY    29  27  94 NW8       29.89R WCI  21
COLUMBUS       CLOUDY    36  33  89 NW15      29.93R WCI  27
FREMONT        CLOUDY    30  26  85 NW9       29.92R WCI  22
TEKAMAH        CLOUDY    25  23  92 NW12      29.92R WCI  14
WAYNE          CLOUDY    30  26  85 NW10      29.92R WCI  21
$$

NEZ050>053-065>068-078-088>093-131400-
SOUTHEAST NEBRASKA

CITY           SKY/WX    TMP DP  RH WIND       PRES   REMARKS
LINCOLN        PTCLDY    32  25  75 N16       29.92R WCI  21
OMAHA EPPLEY   CLOUDY    23  20  88 NW8       29.89R WCI  14
BEATRICE       PTCLDY    32  28  86 N12       29.90R WCI  23
FALLS CITY     CLOUDY    35  31  85 NW5       29.86R WCI  31
NEBRASKA CITY  CLOUDY    32  28  86 NW9       29.87R WCI  24
PLATTSMOUTH    PTCLDY    29  28  96 NW12      29.87R WCI  19
$$

NEZ044-045-051>053-067-131400-
OMAHA AREA

CITY           SKY/WX    TMP DP  RH WIND       PRES   REMARKS
OMAHA EPPLEY   CLOUDY    23  20  88 NW8       29.89R WCI  14
BLAIR          CLOUDY    29  27  94 NW8       29.89R WCI  21
FREMONT        CLOUDY    30  26  85 NW9       29.92R WCI  22
MILLARD        PTCLDY    30  29  96 NW10      29.90R WCI  21
OFFUTT AFB     CLOUDY    26  26 100 NW8       29.87R WCI  17
PLATTSMOUTH    PTCLDY    29  28  96 NW12      29.87R WCI  19
WAHOO          PTSUNNY   29  25  88 N14       29.91R WCI  18
$$


 

View Past Reports for Omaha, NE.

Products Courtesy of NOAA-NWS
NWS Information Parsing Script by Ken True at Saratoga Weather - Script by SE Lincoln Weather.